| time (UTC) | temp F | wind direction | speed MPH | gust MPH | rain 1hr in | rain 24hr in | rain mn in | humidity % | barometer mb |
| 20260507060600 | 49 | 65 | 3.0 | 6.0 | 0.00 | 0.12 | 0.00 | 88 | 1014.4 |
| 20260507060007 | 48 | 65 | 3.0 | 7.0 | 0.00 | 0.12 | 0.00 | 89 | 1018.9 |
| 20260507055559 | 48 | 115 | 2.0 | 7.0 | 0.00 | 0.19 | 0.00 | 89 | 1014.3 |
| 20260507055500 | 48 | 359 | 3.0 | 7.0 | 0.00 | 0.19 | 0.00 | 89 | 1018.9 |
| 20260507055059 | 48 | 75 | 2.0 | 5.0 | 0.00 | 0.19 | 0.00 | 90 | 1014.3 |
| 20260507055001 | 48 | 108 | 3.0 | 5.0 | 0.00 | 0.19 | 0.00 | 90 | 1018.9 |
| 20260507054559 | 48 | 72 | 2.0 | 6.0 | 0.00 | 0.19 | 0.00 | 89 | 1014.3 |
| 20260507054501 | 48 | 61 | 3.0 | 7.0 | 0.00 | 0.19 | 0.00 | 89 | 1018.9 |
| 20260507054059 | 48 | 114 | 3.0 | 7.0 | 0.00 | 0.19 | 0.00 | 89 | 1014.4 |
| 20260507054002 | 48 | 86 | 4.0 | 7.0 | 0.00 | 0.19 | 0.00 | 89 | 1018.9 |
| 20260507053600 | 48 | 117 | 2.0 | 7.0 | 0.00 | 0.19 | 0.00 | 90 | 1014.3 |
| 20260507053501 | 48 | 63 | 4.0 | 7.0 | 0.00 | 0.19 | 0.00 | 89 | 1018.9 |
| 20260507053100 | 48 | 82 | 3.0 | 7.0 | 0.00 | 0.19 | 0.00 | 89 | 1014.2 |
| 20260507053003 | 48 | 77 | 4.0 | 7.0 | 0.00 | 0.19 | 0.00 | 89 | 1018.8 |
| 20260507052601 | 48 | 65 | 3.0 | 6.0 | 0.00 | 0.19 | 0.00 | 89 | 1014.3 |
| 20260507052501 | 48 | 70 | 3.0 | 7.0 | 0.00 | 0.19 | 0.00 | 89 | 1018.8 |
| 20260507052100 | 48 | 78 | 3.0 | 7.0 | 0.00 | 0.19 | 0.00 | 89 | 1014.3 |
| 20260507052001 | 48 | 71 | 3.0 | 7.0 | 0.00 | 0.19 | 0.00 | 89 | 1018.8 |
| 20260507051602 | 48 | 117 | 3.0 | 7.0 | 0.00 | 0.19 | 0.00 | 89 | 1014.3 |
| 20260507051501 | 48 | 95 | 3.0 | 7.0 | 0.00 | 0.19 | 0.00 | 89 | 1018.8 |
| 20260507051103 | 48 | 66 | 3.0 | 5.0 | 0.00 | 0.19 | 0.00 | 89 | 1014.4 |
| 20260507051003 | 48 | 105 | 3.0 | 5.0 | 0.00 | 0.19 | 0.00 | 89 | 1018.9 |
| 20260507050603 | 48 | 113 | 2.0 | 5.0 | 0.00 | 0.19 | 0.00 | 89 | 1014.3 |
| 20260507050501 | 48 | 108 | 2.0 | 5.0 | 0.00 | 0.19 | 0.00 | 89 | 1018.9 |
| 20260507050100 | 48 | 96 | 1.0 | 5.0 | 0.00 | 0.19 | 0.00 | 89 | 1014.3 |
| 20260507050006 | 48 | 111 | 2.0 | 5.0 | 0.00 | 0.19 | 0.00 | 89 | 1018.8 |
| 20260507050002 | 48 | 111 | 2.0 | 5.0 | 0.00 | 0.19 | 0.00 | 89 | 1014.3 |
| 20260507045606 | 48 | 82 | 2.0 | 5.0 | 0.00 | 0.21 | 0.00 | 89 | 1014.2 |
| 20260507045500 | 48 | 119 | 3.0 | 5.0 | 0.00 | 0.21 | 0.00 | 89 | 1018.8 |
| 20260507045059 | 48 | 34 | 1.0 | 6.0 | 0.00 | 0.21 | 0.00 | 90 | 1014.2 |
| 20260507045002 | 48 | 86 | 3.0 | 6.0 | 0.00 | 0.21 | 0.00 | 89 | 1018.7 |
| 20260507044602 | 48 | 109 | 2.0 | 6.0 | 0.00 | 0.21 | 0.00 | 89 | 1014.1 |
| 20260507044500 | 48 | 99 | 3.0 | 6.0 | 0.00 | 0.21 | 0.00 | 89 | 1018.7 |
| 20260507044104 | 48 | 72 | 2.0 | 7.0 | 0.00 | 0.21 | 0.00 | 90 | 1014.1 |
| 20260507044001 | 48 | 110 | 3.0 | 7.0 | 0.00 | 0.21 | 0.00 | 90 | 1018.7 |
| 20260507043559 | 48 | 84 | 3.0 | 7.0 | 0.00 | 0.21 | 0.00 | 89 | 1014.1 |
| 20260507043501 | 48 | 73 | 3.0 | 7.0 | 0.00 | 0.21 | 0.00 | 89 | 1018.6 |
| 20260507043103 | 48 | 94 | 2.0 | 6.0 | 0.00 | 0.21 | 0.00 | 90 | 1014.2 |
| 20260507043002 | 48 | 94 | 3.0 | 6.0 | 0.00 | 0.21 | 0.00 | 90 | 1018.7 |
| 20260507042600 | 48 | 91 | 2.0 | 7.0 | 0.00 | 0.21 | 0.00 | 90 | 1014.2 |
| 20260507042500 | 48 | 93 | 3.0 | 7.0 | 0.00 | 0.21 | 0.00 | 90 | 1018.7 |
| 20260507042059 | 48 | 96 | 3.0 | 7.0 | 0.00 | 0.21 | 0.00 | 90 | 1014.2 |
| 20260507042002 | 48 | 94 | 3.0 | 7.0 | 0.00 | 0.21 | 0.00 | 89 | 1018.7 |
| 20260507041601 | 48 | 69 | 3.0 | 8.0 | 0.00 | 0.21 | 0.00 | 90 | 1014.2 |
| 20260507041501 | 48 | 95 | 4.0 | 8.0 | 0.00 | 0.21 | 0.00 | 90 | 1018.7 |
| 20260507041100 | 48 | 76 | 3.0 | 8.0 | 0.00 | 0.21 | 0.00 | 90 | 1014.2 |
| 20260507040602 | 48 | 66 | 3.0 | 6.0 | 0.00 | 0.21 | 0.00 | 90 | 1014.3 |
| 20260507040500 | 48 | 87 | 3.0 | 7.0 | 0.00 | 0.21 | 0.00 | 90 | 1018.8 |
| 20260507040100 | 48 | 65 | 2.0 | 7.0 | 0.00 | 0.21 | 0.00 | 90 | 1014.3 |
| 20260507040005 | 48 | 101 | 4.0 | 7.0 | 0.00 | 0.21 | 0.00 | 90 | 1018.8 |
| 20260507040002 | 48 | 101 | 2.0 | 7.0 | 0.00 | 0.21 | 0.00 | 90 | 1014.3 |
| 20260507035559 | 48 | 81 | 3.0 | 7.0 | 0.00 | 0.22 | 0.00 | 90 | 1014.3 |
| 20260507035102 | 48 | 70 | 3.0 | 6.0 | 0.00 | 0.22 | 0.00 | 90 | 1014.4 |
| 20260507035001 | 48 | 95 | 3.0 | 6.0 | 0.00 | 0.22 | 0.00 | 90 | 1018.9 |
| 20260507034600 | 48 | 92 | 2.0 | 6.0 | 0.00 | 0.22 | 0.00 | 90 | 1014.4 |
| 20260507034502 | 48 | 105 | 3.0 | 6.0 | 0.00 | 0.22 | 0.00 | 90 | 1018.9 |
| 20260507034100 | 48 | 95 | 2.0 | 6.0 | 0.00 | 0.22 | 0.00 | 89 | 1014.4 |
| 20260507033600 | 48 | 81 | 2.0 | 6.0 | 0.00 | 0.22 | 0.00 | 89 | 1014.3 |
| 20260507033501 | 48 | 75 | 3.0 | 6.0 | 0.00 | 0.22 | 0.00 | 89 | 1018.9 |
| 20260507033100 | 48 | 127 | 3.0 | 7.0 | 0.00 | 0.22 | 0.00 | 89 | 1014.4 |
| 20260507033001 | 48 | 91 | 3.0 | 7.0 | 0.00 | 0.22 | 0.00 | 89 | 1018.9 |
| 20260507032601 | 48 | 116 | 3.0 | 7.0 | 0.00 | 0.22 | 0.00 | 89 | 1014.4 |
| 20260507032502 | 48 | 92 | 3.0 | 7.0 | 0.00 | 0.22 | 0.00 | 90 | 1018.9 |
| 20260507032100 | 48 | 113 | 3.0 | 6.0 | 0.00 | 0.22 | 0.00 | 90 | 1014.4 |
| 20260507032002 | 48 | 93 | 3.0 | 6.0 | 0.00 | 0.22 | 0.00 | 90 | 1018.9 |
| 20260507031600 | 48 | 111 | 2.0 | 6.0 | 0.00 | 0.22 | 0.00 | 90 | 1014.5 |
| 20260507031500 | 48 | 95 | 3.0 | 6.0 | 0.00 | 0.22 | 0.00 | 90 | 1019.0 |
| 20260507031103 | 48 | 63 | 3.0 | 6.0 | 0.00 | 0.22 | 0.00 | 89 | 1014.4 |
| 20260507031001 | 48 | 87 | 3.0 | 6.0 | 0.00 | 0.22 | 0.00 | 89 | 1019.0 |
| 20260507030559 | 48 | 67 | 2.0 | 6.0 | 0.00 | 0.22 | 0.00 | 90 | 1014.5 |
| 20260507030501 | 48 | 78 | 3.0 | 6.0 | 0.00 | 0.22 | 0.00 | 90 | 1019.0 |
| 20260507030101 | 49 | 89 | 2.0 | 5.0 | 0.00 | 0.22 | 0.00 | 90 | 1014.4 |
| 20260507030006 | 49 | 84 | 3.0 | 5.0 | 0.00 | 0.22 | 0.00 | 90 | 1018.9 |
| 20260507030003 | 49 | 84 | 3.0 | 5.0 | 0.00 | 0.22 | 0.00 | 90 | 1014.4 |
| 20260507025604 | 49 | 72 | 3.0 | 7.0 | 0.00 | 0.22 | 0.00 | 90 | 1014.4 |
| 20260507025501 | 49 | 101 | 4.0 | 7.0 | 0.00 | 0.22 | 0.00 | 90 | 1018.9 |
| 20260507025101 | 48 | 87 | 3.0 | 7.0 | 0.00 | 0.22 | 0.00 | 90 | 1014.3 |
| 20260507025001 | 48 | 101 | 4.0 | 7.0 | 0.00 | 0.22 | 0.00 | 90 | 1018.8 |
| 20260507024630 | 48 | 99 | 3.0 | 9.0 | 0.00 | 0.22 | 0.00 | 90 | 1014.3 |
| 20260507024501 | 48 | 70 | 4.0 | 9.0 | 0.00 | 0.22 | 0.00 | 90 | 1018.9 |
| 20260507024059 | 48 | 70 | 4.0 | 9.0 | 0.00 | 0.22 | 0.00 | 90 | 1014.4 |
| 20260507023602 | 48 | 105 | 3.0 | 8.0 | 0.00 | 0.22 | 0.00 | 90 | 1014.4 |
| 20260507023501 | 49 | 98 | 4.0 | 8.0 | 0.00 | 0.22 | 0.00 | 90 | 1019.0 |
| 20260507023100 | 49 | 100 | 4.0 | 8.0 | 0.00 | 0.22 | 0.00 | 89 | 1014.5 |
| 20260507023001 | 49 | 58 | 4.0 | 8.0 | 0.00 | 0.22 | 0.00 | 89 | 1019.0 |
| 20260507022600 | 49 | 74 | 5.0 | 8.0 | 0.00 | 0.22 | 0.00 | 89 | 1014.5 |
| 20260507022502 | 49 | 89 | 3.0 | 8.0 | 0.00 | 0.22 | 0.00 | 89 | 1019.0 |
| 20260507022100 | 49 | 80 | 3.0 | 6.0 | 0.00 | 0.22 | 0.00 | 89 | 1014.5 |
| 20260507022001 | 49 | 90 | 3.0 | 6.0 | 0.00 | 0.22 | 0.00 | 89 | 1019.1 |
| 20260507021600 | 49 | 113 | 2.0 | 6.0 | 0.00 | 0.22 | 0.00 | 89 | 1014.5 |
| 20260507021501 | 49 | 93 | 4.0 | 6.0 | 0.00 | 0.22 | 0.00 | 89 | 1019.0 |
| 20260507021100 | 49 | 81 | 3.0 | 6.0 | 0.00 | 0.22 | 0.00 | 89 | 1014.5 |
| 20260507021001 | 49 | 74 | 3.0 | 6.0 | 0.00 | 0.22 | 0.00 | 89 | 1019.0 |
| 20260507020601 | 49 | 63 | 3.0 | 6.0 | 0.00 | 0.22 | 0.00 | 89 | 1014.6 |
| 20260507020502 | 49 | 77 | 3.0 | 6.0 | 0.00 | 0.22 | 0.00 | 89 | 1019.1 |
| 20260507020111 | 49 | 64 | 2.0 | 6.0 | 0.00 | 0.22 | 0.00 | 89 | 1014.6 |
| 20260507020004 | 49 | 98 | 3.0 | 6.0 | 0.00 | 0.22 | 0.00 | 89 | 1019.1 |
| 20260507015559 | 49 | 108 | 3.0 | 6.0 | 0.00 | 0.22 | 0.00 | 89 | 1014.6 |
| 20260507015500 | 49 | 83 | 4.0 | 6.0 | 0.00 | 0.22 | 0.00 | 89 | 1019.1 |
| 20260507015100 | 49 | 66 | 3.0 | 7.0 | 0.00 | 0.22 | 0.00 | 89 | 1014.6 |
| 20260507015002 | 49 | 89 | 4.0 | 7.0 | 0.00 | 0.22 | 0.00 | 89 | 1019.2 |
| 20260507014609 | 49 | 78 | 4.0 | 7.0 | 0.00 | 0.22 | 0.00 | 89 | 1014.6 |
| 20260507014500 | 49 | 65 | 4.0 | 7.0 | 0.00 | 0.22 | 0.00 | 89 | 1019.2 |
| 20260507014100 | 49 | 65 | 3.0 | 7.0 | 0.00 | 0.22 | 0.00 | 88 | 1014.8 |
| 20260507013559 | 49 | 87 | 2.0 | 6.0 | 0.00 | 0.22 | 0.00 | 89 | 1014.7 |
| 20260507013501 | 49 | 83 | 3.0 | 6.0 | 0.00 | 0.22 | 0.00 | 89 | 1019.2 |
| 20260507013100 | 49 | 110 | 3.0 | 6.0 | 0.00 | 0.22 | 0.00 | 89 | 1014.7 |
| 20260507013001 | 50 | 93 | 3.0 | 6.0 | 0.00 | 0.22 | 0.00 | 89 | 1019.2 |
| 20260507012600 | 50 | 80 | 3.0 | 6.0 | 0.00 | 0.22 | 0.00 | 89 | 1014.7 |
| 20260507012500 | 50 | 74 | 3.0 | 6.0 | 0.00 | 0.22 | 0.00 | 89 | 1019.2 |
| 20260507012100 | 50 | 111 | 2.0 | 5.0 | 0.00 | 0.22 | 0.00 | 89 | 1014.6 |
| 20260507012004 | 50 | 96 | 3.0 | 5.0 | 0.00 | 0.22 | 0.00 | 89 | 1019.2 |
| 20260507011603 | 50 | 98 | 1.0 | 6.0 | 0.00 | 0.22 | 0.00 | 89 | 1014.6 |
| 20260507011501 | 50 | 113 | 3.0 | 6.0 | 0.00 | 0.22 | 0.00 | 89 | 1019.2 |
| 20260507011059 | 50 | 67 | 2.0 | 7.0 | 0.00 | 0.22 | 0.00 | 89 | 1014.6 |
| 20260507011001 | 50 | 98 | 3.0 | 7.0 | 0.00 | 0.22 | 0.00 | 89 | 1019.2 |
| 20260507010559 | 50 | 70 | 3.0 | 7.0 | 0.00 | 0.22 | 0.00 | 89 | 1014.7 |
| 20260507010501 | 50 | 111 | 3.0 | 7.0 | 0.00 | 0.22 | 0.00 | 89 | 1019.2 |
| 20260507010100 | 50 | 104 | 2.0 | 7.0 | 0.00 | 0.22 | 0.00 | 89 | 1014.7 |
| 20260507010004 | 50 | 87 | 4.0 | 7.0 | 0.00 | 0.22 | 0.00 | 89 | 1019.2 |
| 20260507010002 | 50 | 87 | 3.0 | 7.0 | 0.00 | 0.22 | 0.00 | 89 | 1014.7 |
| 20260507005600 | 50 | 85 | 4.0 | 7.0 | 0.00 | 0.22 | 0.00 | 89 | 1014.7 |
| 20260507005500 | 50 | 93 | 4.0 | 6.0 | 0.00 | 0.22 | 0.00 | 89 | 1019.3 |
| 20260507005059 | 50 | 101 | 3.0 | 7.0 | 0.00 | 0.22 | 0.00 | 89 | 1014.8 |
| 20260507005001 | 50 | 94 | 4.0 | 7.0 | 0.00 | 0.22 | 0.00 | 89 | 1019.4 |
| 20260507004559 | 50 | 108 | 3.0 | 7.0 | 0.00 | 0.22 | 0.00 | 89 | 1014.9 |
| 20260507004502 | 50 | 102 | 4.0 | 7.0 | 0.00 | 0.22 | 0.00 | 89 | 1019.5 |
| 20260507004101 | 50 | 121 | 3.0 | 6.0 | 0.00 | 0.22 | 0.00 | 89 | 1014.9 |
| 20260507004001 | 50 | 73 | 3.0 | 6.0 | 0.00 | 0.22 | 0.00 | 89 | 1019.5 |
| 20260507003600 | 50 | 102 | 3.0 | 6.0 | 0.00 | 0.22 | 0.00 | 89 | 1014.9 |
| 20260507003502 | 50 | 82 | 3.0 | 6.0 | 0.00 | 0.22 | 0.00 | 89 | 1019.5 |
| 20260507003100 | 50 | 84 | 3.0 | 6.0 | 0.00 | 0.22 | 0.00 | 89 | 1015.0 |
| 20260507003001 | 50 | 110 | 3.0 | 6.0 | 0.00 | 0.22 | 0.00 | 89 | 1019.5 |
| 20260507002600 | 50 | 89 | 2.0 | 4.0 | 0.00 | 0.22 | 0.00 | 89 | 1015.0 |
| 20260507002501 | 50 | 65 | 3.0 | 4.0 | 0.00 | 0.22 | 0.00 | 89 | 1019.6 |
| 20260507002102 | 51 | 97 | 2.0 | 5.0 | 0.00 | 0.22 | 0.00 | 90 | 1015.0 |
| 20260507002001 | 51 | 77 | 3.0 | 6.0 | 0.00 | 0.22 | 0.00 | 90 | 1019.5 |
| 20260507001602 | 50 | 127 | 2.0 | 7.0 | 0.00 | 0.22 | 0.00 | 89 | 1015.0 |
| 20260507001501 | 50 | 78 | 3.0 | 7.0 | 0.00 | 0.22 | 0.00 | 89 | 1019.5 |
| 20260507001059 | 51 | 84 | 2.0 | 7.0 | 0.00 | 0.22 | 0.00 | 89 | 1015.0 |
| 20260507001001 | 51 | 124 | 3.0 | 7.0 | 0.00 | 0.22 | 0.00 | 89 | 1019.6 |
| 20260507000600 | 51 | 90 | 3.0 | 6.0 | 0.00 | 0.22 | 0.00 | 89 | 1015.1 |
| 20260507000500 | 51 | 84 | 3.0 | 6.0 | 0.00 | 0.22 | 0.00 | 89 | 1019.7 |
| 20260507000100 | 51 | 68 | 2.0 | 5.0 | 0.00 | 0.22 | 0.00 | 89 | 1015.1 |
| 20260507000005 | 51 | 96 | 2.0 | 5.0 | 0.00 | 0.22 | 0.00 | 89 | 1019.7 |
| 20260507000002 | 51 | 96 | 2.0 | 5.0 | 0.00 | 0.22 | 0.00 | 89 | 1015.1 |
| 20260506235600 | 51 | 91 | 2.0 | 5.0 | 0.00 | 0.22 | 0.00 | 89 | 1015.1 |
| 20260506235100 | 51 | 108 | 2.0 | 5.0 | 0.00 | 0.22 | 0.00 | 89 | 1015.1 |
| 20260506235001 | 51 | 120 | 2.0 | 5.0 | 0.00 | 0.22 | 0.00 | 89 | 1019.7 |
| 20260506234609 | 51 | 86 | 1.0 | 5.0 | 0.00 | 0.22 | 0.00 | 89 | 1015.1 |
| 20260506234500 | 51 | 106 | 2.0 | 5.0 | 0.00 | 0.22 | 0.00 | 89 | 1019.7 |
| 20260506234100 | 51 | 85 | 1.0 | 5.0 | 0.00 | 0.22 | 0.00 | 89 | 1015.2 |
| 20260506234002 | 51 | 68 | 3.0 | 5.0 | 0.00 | 0.22 | 0.00 | 89 | 1019.8 |
| 20260506233603 | 51 | 94 | 2.0 | 5.0 | 0.00 | 0.22 | 0.00 | 89 | 1015.3 |
| 20260506233500 | 51 | 76 | 2.0 | 5.0 | 0.00 | 0.22 | 0.00 | 89 | 1019.8 |
| 20260506233101 | 51 | 121 | 2.0 | 5.0 | 0.00 | 0.22 | 0.00 | 90 | 1015.3 |
| 20260506233002 | 51 | 57 | 2.0 | 5.0 | 0.00 | 0.22 | 0.00 | 90 | 1019.9 |
| 20260506232559 | 51 | 99 | 2.0 | 5.0 | 0.00 | 0.22 | 0.00 | 90 | 1015.3 |
| 20260506232501 | 51 | 93 | 3.0 | 5.0 | 0.00 | 0.22 | 0.00 | 90 | 1019.9 |
| 20260506232059 | 51 | 76 | 3.0 | 5.0 | 0.00 | 0.22 | 0.00 | 90 | 1015.4 |
| 20260506232001 | 51 | 96 | 3.0 | 5.0 | 0.00 | 0.22 | 0.00 | 90 | 1020.0 |
| 20260506231600 | 52 | 107 | 2.0 | 5.0 | 0.00 | 0.22 | 0.00 | 90 | 1015.4 |
| 20260506231504 | 52 | 116 | 3.0 | 6.0 | 0.00 | 0.22 | 0.00 | 90 | 1020.0 |
| 20260506231101 | 52 | 78 | 1.0 | 6.0 | 0.00 | 0.22 | 0.00 | 90 | 1015.4 |
| 20260506231002 | 52 | 108 | 3.0 | 6.0 | 0.00 | 0.22 | 0.00 | 90 | 1020.0 |
| 20260506231000 | 52 | 108 | 2.0 | 6.0 | 0.00 | 0.22 | 0.00 | 90 | 1015.4 |
| 20260506230600 | 52 | 80 | 3.0 | 5.0 | 0.00 | 0.22 | 0.00 | 89 | 1015.4 |
| 20260506230004 | 52 | 96 | 3.0 | 5.0 | 0.00 | 0.22 | 0.00 | 89 | 1020.0 |
| 20260506230002 | 52 | 96 | 2.0 | 5.0 | 0.00 | 0.22 | 0.00 | 89 | 1015.4 |
| 20260506225602 | 52 | 128 | 2.0 | 5.0 | 0.00 | 0.22 | 0.00 | 89 | 1015.4 |
| 20260506225102 | 52 | 68 | 1.0 | 5.0 | 0.00 | 0.22 | 0.00 | 89 | 1015.4 |
| 20260506225001 | 52 | 122 | 2.0 | 5.0 | 0.00 | 0.22 | 0.00 | 89 | 1020.0 |
| 20260506224559 | 52 | 110 | 2.0 | 4.0 | 0.00 | 0.22 | 0.00 | 89 | 1015.5 |
| 20260506224501 | 52 | 72 | 2.0 | 3.0 | 0.00 | 0.22 | 0.00 | 89 | 1020.0 |
| 20260506224100 | 52 | 70 | 1.0 | 3.0 | 0.00 | 0.22 | 0.00 | 89 | 1015.4 |
| 20260506223600 | 52 | 64 | 1.0 | 4.0 | 0.00 | 0.22 | 0.00 | 89 | 1015.4 |
| 20260506223502 | 52 | 75 | 2.0 | 5.0 | 0.00 | 0.22 | 0.00 | 89 | 1020.0 |
| 20260506223100 | 52 | 109 | 2.0 | 5.0 | 0.00 | 0.22 | 0.00 | 89 | 1015.5 |
| 20260506223001 | 52 | 99 | 3.0 | 5.0 | 0.00 | 0.22 | 0.00 | 89 | 1020.1 |
| 20260506222603 | 53 | 98 | 2.0 | 5.0 | 0.00 | 0.22 | 0.00 | 89 | 1015.5 |
| 20260506222500 | 53 | 90 | 3.0 | 5.0 | 0.00 | 0.22 | 0.00 | 89 | 1020.1 |
| 20260506222100 | 53 | 75 | 2.0 | 5.0 | 0.00 | 0.22 | 0.00 | 89 | 1015.5 |
| 20260506222001 | 53 | 76 | 2.0 | 5.0 | 0.00 | 0.22 | 0.00 | 89 | 1020.1 |
| 20260506221600 | 53 | 100 | 1.0 | 5.0 | 0.00 | 0.22 | 0.00 | 89 | 1015.5 |
| 20260506221502 | 53 | 126 | 2.0 | 5.0 | 0.00 | 0.22 | 0.00 | 89 | 1020.1 |
| 20260506221059 | 53 | 76 | 1.0 | 5.0 | 0.00 | 0.22 | 0.00 | 89 | 1015.5 |
| 20260506221002 | 53 | 86 | 3.0 | 5.0 | 0.00 | 0.22 | 0.00 | 89 | 1020.1 |
| 20260506220600 | 53 | 90 | 2.0 | 5.0 | 0.00 | 0.22 | 0.00 | 88 | 1015.5 |
| 20260506220501 | 53 | 78 | 3.0 | 5.0 | 0.00 | 0.22 | 0.00 | 88 | 1020.1 |
| 20260506220100 | 53 | 82 | 2.0 | 5.0 | 0.00 | 0.22 | 0.00 | 88 | 1015.5 |
| 20260506220005 | 53 | 77 | 2.0 | 5.0 | 0.00 | 0.22 | 0.00 | 88 | 1020.1 |
| 20260506215559 | 53 | 82 | 2.0 | 4.0 | 0.00 | 0.22 | 0.22 | 89 | 1015.6 |
| 20260506215500 | 53 | 118 | 2.0 | 4.0 | 0.00 | 0.22 | 0.22 | 89 | 1020.1 |
| 20260506215059 | 53 | 82 | 1.0 | 4.0 | 0.00 | 0.22 | 0.22 | 88 | 1015.5 |
| 20260506215002 | 53 | 112 | 2.0 | 4.0 | 0.00 | 0.22 | 0.22 | 88 | 1020.1 |
| 20260506214600 | 53 | 89 | 1.0 | 4.0 | 0.00 | 0.22 | 0.22 | 88 | 1015.5 |
| 20260506214500 | 53 | 91 | 2.0 | 4.0 | 0.00 | 0.22 | 0.22 | 88 | 1020.1 |
| 20260506214100 | 53 | 88 | 2.0 | 4.0 | 0.00 | 0.22 | 0.22 | 88 | 1015.6 |
| 20260506214003 | 53 | 75 | 2.0 | 4.0 | 0.00 | 0.22 | 0.22 | 88 | 1020.2 |
| 20260506213602 | 54 | 57 | 2.0 | 4.0 | 0.00 | 0.22 | 0.22 | 88 | 1015.6 |
| 20260506213502 | 54 | 85 | 2.0 | 4.0 | 0.00 | 0.22 | 0.22 | 88 | 1020.2 |
| 20260506213139 | 54 | 89 | 2.0 | 5.0 | 0.00 | 0.22 | 0.22 | 88 | 1015.6 |
| 20260506213001 | 54 | 127 | 3.0 | 5.0 | 0.00 | 0.22 | 0.22 | 88 | 1020.2 |
| 20260506212601 | 54 | 133 | 3.0 | 5.0 | 0.00 | 0.22 | 0.22 | 87 | 1015.5 |
| 20260506212500 | 54 | 131 | 2.0 | 5.0 | 0.00 | 0.22 | 0.22 | 87 | 1020.1 |
| 20260506212100 | 54 | 113 | 1.0 | 4.0 | 0.00 | 0.22 | 0.22 | 87 | 1015.6 |
| 20260506212005 | 54 | 100 | 2.0 | 4.0 | 0.00 | 0.22 | 0.22 | 87 | 1020.1 |
| 20260506211627 | 54 | 94 | 1.0 | 4.0 | 0.00 | 0.22 | 0.22 | 87 | 1015.5 |
| 20260506211100 | 54 | 105 | 1.0 | 4.0 | 0.00 | 0.22 | 0.22 | 87 | 1015.5 |
| 20260506211001 | 54 | 103 | 2.0 | 6.0 | 0.00 | 0.22 | 0.22 | 87 | 1020.0 |
| 20260506210600 | 54 | 115 | 2.0 | 6.0 | 0.00 | 0.22 | 0.22 | 87 | 1015.5 |
| 20260506210511 | 54 | 92 | 2.0 | 6.0 | 0.00 | 0.22 | 0.22 | 87 | 1015.5 |
| 20260506210103 | 54 | 85 | 3.0 | 6.0 | 0.00 | 0.22 | 0.22 | 86 | 1015.5 |
| 20260506210006 | 54 | 94 | 2.0 | 6.0 | 0.00 | 0.22 | 0.22 | 86 | 1020.0 |
| 20260506210002 | 54 | 94 | 3.0 | 6.0 | 0.00 | 0.22 | 0.22 | 86 | 1015.5 |
| 20260506205559 | 54 | 129 | 1.0 | 3.0 | 0.00 | 0.22 | 0.22 | 86 | 1015.5 |
| 20260506205500 | 54 | 79 | 1.0 | 2.0 | 0.00 | 0.22 | 0.22 | 86 | 1020.1 |
| 20260506205059 | 54 | 108 | 0.0 | 3.0 | 0.00 | 0.22 | 0.22 | 86 | 1015.4 |
| 20260506205001 | 54 | 65 | 1.0 | 3.0 | 0.00 | 0.22 | 0.22 | 87 | 1020.0 |
| 20260506204601 | 54 | 72 | 1.0 | 3.0 | 0.00 | 0.22 | 0.22 | 86 | 1015.4 |
| 20260506204501 | 54 | 88 | 2.0 | 3.0 | 0.00 | 0.22 | 0.22 | 86 | 1020.0 |
| 20260506204059 | 54 | 85 | 1.0 | 3.0 | 0.00 | 0.22 | 0.22 | 86 | 1015.5 |
| 20260506204002 | 54 | 98 | 2.0 | 3.0 | 0.00 | 0.22 | 0.22 | 86 | 1020.0 |
| 20260506203559 | 55 | 74 | 2.0 | 3.0 | 0.00 | 0.22 | 0.22 | 85 | 1015.6 |
| 20260506203501 | 55 | 78 | 1.0 | 3.0 | 0.00 | 0.22 | 0.22 | 85 | 1020.1 |
| 20260506203103 | 55 | 87 | 1.0 | 3.0 | 0.00 | 0.22 | 0.22 | 85 | 1015.5 |
| 20260506203002 | 55 | 80 | 1.0 | 2.0 | 0.00 | 0.22 | 0.22 | 85 | 1020.1 |
| 20260506202604 | 55 | 89 | 1.0 | 2.0 | 0.00 | 0.22 | 0.22 | 85 | 1015.4 |
| 20260506202500 | 55 | 84 | 1.0 | 2.0 | 0.00 | 0.22 | 0.22 | 85 | 1020.0 |
| 20260506202104 | 55 | 77 | 0.0 | 2.0 | 0.00 | 0.22 | 0.22 | 84 | 1015.4 |
| 20260506202001 | 55 | 72 | 1.0 | 2.0 | 0.00 | 0.22 | 0.22 | 84 | 1020.0 |
| 20260506201610 | 55 | 80 | 1.0 | 2.0 | 0.00 | 0.22 | 0.22 | 83 | 1015.4 |
| 20260506201500 | 55 | 78 | 1.0 | 2.0 | 0.00 | 0.22 | 0.22 | 83 | 1020.0 |
| 20260506201101 | 55 | 88 | 0.0 | 1.0 | 0.00 | 0.22 | 0.22 | 83 | 1015.4 |
| 20260506200559 | 55 | 74 | 0.0 | 2.0 | 0.00 | 0.22 | 0.22 | 83 | 1015.4 |
| 20260506200500 | 55 | 75 | 1.0 | 2.0 | 0.00 | 0.22 | 0.22 | 83 | 1019.9 |
| 20260506200005 | 56 | 69 | 0.0 | 2.0 | 0.00 | 0.22 | 0.22 | 82 | 1015.3 |
| 20260506200003 | 56 | 69 | 1.0 | 2.0 | 0.00 | 0.22 | 0.22 | 82 | 1019.9 |
| 20260506195559 | 56 | 91 | 0.0 | 2.0 | 0.00 | 0.23 | 0.22 | 82 | 1015.3 |
| 20260506195500 | 56 | 103 | 1.0 | 2.0 | 0.00 | 0.23 | 0.22 | 82 | 1019.8 |
| 20260506195103 | 56 | 75 | 0.0 | 2.0 | 0.00 | 0.23 | 0.22 | 82 | 1015.2 |
| 20260506194619 | 56 | 75 | 1.0 | 2.0 | 0.00 | 0.23 | 0.22 | 81 | 1015.1 |
| 20260506194504 | 56 | 72 | 1.0 | 2.0 | 0.00 | 0.23 | 0.22 | 81 | 1019.7 |
| 20260506194059 | 56 | 70 | 0.0 | 2.0 | 0.00 | 0.23 | 0.22 | 80 | 1015.0 |
| 20260506194001 | 57 | 79 | 1.0 | 2.0 | 0.00 | 0.23 | 0.22 | 80 | 1019.6 |
| 20260506193559 | 57 | 63 | 0.0 | 2.0 | 0.00 | 0.23 | 0.22 | 79 | 1015.0 |
| 20260506193501 | 57 | 81 | 0.0 | 1.0 | 0.00 | 0.23 | 0.22 | 79 | 1019.6 |
| 20260506193101 | 57 | 333 | 0.0 | 1.0 | 0.00 | 0.23 | 0.22 | 79 | 1015.0 |
| 20260506192559 | 58 | 333 | 0.0 | 1.0 | 0.00 | 0.23 | 0.22 | 78 | 1015.0 |
| 20260506192100 | 58 | 333 | 0.0 | 1.0 | 0.00 | 0.23 | 0.22 | 78 | 1014.9 |
| 20260506192001 | 58 | 334 | 0.0 | 2.0 | 0.00 | 0.23 | 0.22 | 78 | 1019.5 |
| 20260506191607 | 58 | 333 | 0.0 | 2.0 | 0.00 | 0.23 | 0.22 | 77 | 1014.9 |
| 20260506191500 | 58 | 332 | 0.0 | 2.0 | 0.00 | 0.23 | 0.22 | 77 | 1019.5 |
| 20260506191100 | 58 | 334 | 0.0 | 2.0 | 0.00 | 0.23 | 0.22 | 76 | 1014.9 |
| 20260506191006 | 58 | 319 | 1.0 | 2.0 | 0.00 | 0.23 | 0.22 | 76 | 1019.4 |
| 20260506190600 | 59 | 359 | 0.0 | 2.0 | 0.00 | 0.23 | 0.22 | 75 | 1014.9 |
| 20260506190500 | 59 | 6 | 1.0 | 2.0 | 0.00 | 0.23 | 0.22 | 75 | 1019.4 |
| 20260506190100 | 60 | 339 | 0.0 | 2.0 | 0.00 | 0.23 | 0.22 | 74 | 1014.8 |
| 20260506190005 | 60 | 295 | 0.0 | 2.0 | 0.00 | 0.23 | 0.22 | 74 | 1019.4 |
| 20260506190002 | 60 | 295 | 0.0 | 2.0 | 0.00 | 0.23 | 0.22 | 74 | 1014.8 |
| 20260506185559 | 60 | 349 | 0.0 | 1.0 | 0.00 | 0.28 | 0.22 | 74 | 1014.8 |
| 20260506185501 | 60 | 349 | 0.0 | 1.0 | 0.00 | 0.28 | 0.22 | 74 | 1019.4 |
| 20260506185101 | 60 | 322 | 0.0 | 1.0 | 0.00 | 0.28 | 0.22 | 75 | 1014.8 |
| 20260506185002 | 60 | 322 | 0.0 | 1.0 | 0.00 | 0.28 | 0.22 | 75 | 1019.4 |
| 20260506184608 | 60 | 329 | 0.0 | 1.0 | 0.00 | 0.28 | 0.22 | 74 | 1014.8 |
| 20260506184500 | 60 | 334 | 1.0 | 2.0 | 0.00 | 0.28 | 0.22 | 74 | 1019.3 |
| 20260506184101 | 60 | 276 | 0.0 | 2.0 | 0.00 | 0.28 | 0.22 | 74 | 1014.8 |
| 20260506183600 | 60 | 338 | 0.0 | 3.0 | 0.00 | 0.28 | 0.22 | 74 | 1014.8 |
| 20260506183501 | 60 | 337 | 1.0 | 3.0 | 0.00 | 0.28 | 0.22 | 75 | 1019.4 |
| 20260506183105 | 60 | 319 | 1.0 | 3.0 | 0.00 | 0.28 | 0.22 | 75 | 1014.8 |
| 20260506183001 | 60 | 314 | 1.0 | 3.0 | 0.00 | 0.28 | 0.22 | 75 | 1019.4 |
| 20260506182559 | 60 | 335 | 1.0 | 3.0 | 0.00 | 0.28 | 0.22 | 75 | 1014.7 |
| 20260506182501 | 60 | 271 | 1.0 | 3.0 | 0.00 | 0.28 | 0.22 | 75 | 1019.3 |
| 20260506182100 | 60 | 338 | 0.0 | 3.0 | 0.00 | 0.28 | 0.22 | 75 | 1014.8 |
| 20260506182002 | 60 | 335 | 1.0 | 3.0 | 0.00 | 0.28 | 0.22 | 75 | 1019.3 |
| 20260506181600 | 60 | 322 | 1.0 | 3.0 | 0.00 | 0.28 | 0.22 | 75 | 1014.7 |
| 20260506181501 | 60 | 316 | 2.0 | 3.0 | 0.00 | 0.28 | 0.22 | 75 | 1019.2 |
| 20260506181100 | 60 | 347 | 1.0 | 4.0 | 0.00 | 0.28 | 0.22 | 76 | 1014.7 |
| 20260506181001 | 60 | 311 | 2.0 | 4.0 | 0.00 | 0.28 | 0.22 | 76 | 1019.3 |
| 20260506180600 | 60 | 327 | 2.0 | 4.0 | 0.00 | 0.28 | 0.22 | 76 | 1014.7 |
| 20260506180502 | 60 | 359 | 2.0 | 4.0 | 0.00 | 0.28 | 0.22 | 75 | 1019.2 |
| 20260506180059 | 60 | 291 | 2.0 | 4.0 | 0.00 | 0.28 | 0.22 | 75 | 1014.7 |
| 20260506180006 | 60 | 322 | 2.0 | 4.0 | 0.00 | 0.28 | 0.22 | 75 | 1014.7 |
| 20260506175559 | 61 | 327 | 1.0 | 3.0 | 0.00 | 0.28 | 0.22 | 75 | 1014.8 |
| 20260506175502 | 61 | 26 | 1.0 | 3.0 | 0.00 | 0.28 | 0.22 | 75 | 1019.3 |
| 20260506175059 | 60 | 328 | 1.0 | 5.0 | 0.00 | 0.28 | 0.22 | 76 | 1014.8 |
| 20260506175002 | 60 | 262 | 2.0 | 5.0 | 0.00 | 0.28 | 0.22 | 76 | 1019.3 |
| 20260506174600 | 60 | 336 | 2.0 | 5.0 | 0.00 | 0.28 | 0.22 | 75 | 1014.7 |
| 20260506174100 | 60 | 266 | 2.0 | 5.0 | 0.00 | 0.28 | 0.22 | 75 | 1014.7 |
| 20260506173600 | 60 | 306 | 1.0 | 5.0 | 0.00 | 0.28 | 0.22 | 76 | 1014.7 |
| 20260506173501 | 60 | 356 | 2.0 | 5.0 | 0.00 | 0.28 | 0.22 | 76 | 1019.2 |
| 20260506173109 | 60 | 336 | 1.0 | 4.0 | 0.00 | 0.28 | 0.22 | 75 | 1014.8 |
| 20260506173001 | 60 | 293 | 2.0 | 4.0 | 0.00 | 0.28 | 0.22 | 75 | 1019.3 |
| 20260506172603 | 60 | 316 | 2.0 | 4.0 | 0.00 | 0.28 | 0.22 | 76 | 1014.7 |
| 20260506172501 | 60 | 274 | 2.0 | 4.0 | 0.00 | 0.28 | 0.22 | 76 | 1019.2 |
| 20260506172101 | 60 | 307 | 2.0 | 4.0 | 0.00 | 0.28 | 0.22 | 75 | 1014.7 |
| 20260506172003 | 60 | 253 | 2.0 | 6.0 | 0.00 | 0.28 | 0.22 | 75 | 1019.2 |
| 20260506171600 | 60 | 293 | 1.0 | 6.0 | 0.00 | 0.28 | 0.22 | 76 | 1014.8 |
| 20260506171105 | 60 | 302 | 2.0 | 6.0 | 0.00 | 0.28 | 0.22 | 77 | 1014.8 |
| 20260506171001 | 60 | 290 | 2.0 | 6.0 | 0.00 | 0.28 | 0.22 | 77 | 1019.4 |
| 20260506170600 | 60 | 274 | 2.0 | 6.0 | 0.00 | 0.28 | 0.22 | 77 | 1014.8 |
| 20260506170501 | 60 | 271 | 3.0 | 6.0 | 0.00 | 0.28 | 0.22 | 77 | 1019.3 |
| 20260506170115 | 60 | 267 | 3.0 | 5.0 | 0.00 | 0.28 | 0.22 | 77 | 1014.8 |
| 20260506170013 | 60 | 232 | 3.0 | 5.0 | 0.00 | 0.28 | 0.22 | 76 | 1019.4 |
| 20260506170002 | 60 | 265 | 3.0 | 5.0 | 0.00 | 0.28 | 0.22 | 76 | 1014.8 |
| 20260506165600 | 60 | 260 | 2.0 | 6.0 | 0.00 | 0.28 | 0.22 | 76 | 1014.8 |
| 20260506165500 | 60 | 282 | 2.0 | 6.0 | 0.00 | 0.28 | 0.22 | 76 | 1019.4 |
| 20260506165100 | 59 | 324 | 2.0 | 6.0 | 0.00 | 0.28 | 0.22 | 77 | 1014.8 |
| 20260506165005 | 59 | 275 | 3.0 | 6.0 | 0.00 | 0.28 | 0.22 | 77 | 1019.4 |
| 20260506164602 | 59 | 288 | 2.0 | 6.0 | 0.00 | 0.28 | 0.22 | 77 | 1014.9 |
| 20260506164500 | 58 | 279 | 3.0 | 6.0 | 0.00 | 0.28 | 0.22 | 77 | 1019.4 |
| 20260506164100 | 59 | 296 | 3.0 | 5.0 | 0.00 | 0.28 | 0.22 | 77 | 1014.8 |
| 20260506164000 | 59 | 269 | 3.0 | 5.0 | 0.00 | 0.28 | 0.22 | 77 | 1019.4 |
| 20260506163603 | 59 | 273 | 2.0 | 5.0 | 0.00 | 0.28 | 0.22 | 77 | 1014.9 |
| 20260506163502 | 59 | 314 | 3.0 | 5.0 | 0.00 | 0.28 | 0.22 | 77 | 1019.4 |
| 20260506163112 | 59 | 294 | 2.0 | 5.0 | 0.00 | 0.28 | 0.22 | 77 | 1014.9 |
| 20260506163001 | 59 | 272 | 3.0 | 5.0 | 0.00 | 0.28 | 0.22 | 77 | 1019.4 |
| 20260506162602 | 59 | 245 | 2.0 | 8.0 | 0.00 | 0.28 | 0.22 | 78 | 1014.9 |
| 20260506162100 | 59 | 291 | 4.0 | 8.0 | 0.00 | 0.28 | 0.22 | 77 | 1014.9 |
| 20260506162002 | 59 | 297 | 4.0 | 8.0 | 0.00 | 0.28 | 0.22 | 77 | 1019.4 |
| 20260506161601 | 59 | 270 | 3.0 | 8.0 | 0.00 | 0.28 | 0.22 | 75 | 1014.8 |
| 20260506161501 | 59 | 282 | 3.0 | 6.0 | 0.00 | 0.28 | 0.22 | 75 | 1019.4 |
| 20260506161059 | 59 | 295 | 2.0 | 7.0 | 0.00 | 0.28 | 0.22 | 76 | 1014.8 |
| 20260506160601 | 59 | 300 | 4.0 | 7.0 | 0.00 | 0.28 | 0.22 | 75 | 1014.8 |
| 20260506160501 | 59 | 314 | 4.0 | 6.0 | 0.00 | 0.28 | 0.22 | 75 | 1019.4 |
| 20260506160111 | 60 | 281 | 3.0 | 8.0 | 0.00 | 0.28 | 0.22 | 74 | 1014.8 |
| 20260506160006 | 60 | 272 | 4.0 | 8.0 | 0.00 | 0.28 | 0.22 | 74 | 1019.3 |
| 20260506160004 | 60 | 272 | 3.0 | 8.0 | 0.00 | 0.28 | 0.22 | 74 | 1014.8 |
| 20260506155559 | 60 | 274 | 3.0 | 8.0 | 0.00 | 0.31 | 0.22 | 74 | 1014.9 |
| 20260506155500 | 60 | 288 | 4.0 | 8.0 | 0.00 | 0.31 | 0.22 | 74 | 1019.4 |
| 20260506155100 | 60 | 286 | 2.0 | 7.0 | 0.00 | 0.31 | 0.22 | 76 | 1014.9 |
| 20260506155002 | 60 | 286 | 4.0 | 7.0 | 0.00 | 0.31 | 0.22 | 75 | 1019.5 |
| 20260506154605 | 60 | 290 | 4.0 | 9.0 | 0.00 | 0.31 | 0.22 | 74 | 1015.0 |
| 20260506154500 | 60 | 276 | 5.0 | 9.0 | 0.00 | 0.31 | 0.22 | 75 | 1019.5 |
| 20260506154100 | 59 | 262 | 4.0 | 9.0 | 0.00 | 0.31 | 0.22 | 75 | 1015.0 |
| 20260506154001 | 59 | 287 | 5.0 | 9.0 | 0.00 | 0.31 | 0.22 | 75 | 1019.5 |
| 20260506153600 | 59 | 262 | 4.0 | 9.0 | 0.00 | 0.31 | 0.22 | 75 | 1015.0 |
| 20260506153504 | 59 | 310 | 5.0 | 9.0 | 0.00 | 0.31 | 0.22 | 74 | 1019.6 |
| 20260506153104 | 60 | 282 | 3.0 | 9.0 | 0.00 | 0.31 | 0.22 | 75 | 1015.0 |
| 20260506153002 | 59 | 311 | 4.0 | 8.0 | 0.00 | 0.31 | 0.22 | 75 | 1019.6 |
| 20260506152559 | 59 | 295 | 2.0 | 8.0 | 0.00 | 0.31 | 0.22 | 76 | 1015.0 |
| 20260506152101 | 59 | 318 | 4.0 | 7.0 | 0.00 | 0.31 | 0.22 | 77 | 1015.1 |
| 20260506152001 | 59 | 288 | 3.0 | 7.0 | 0.00 | 0.31 | 0.22 | 76 | 1019.7 |
| 20260506151605 | 59 | 333 | 3.0 | 8.0 | 0.00 | 0.31 | 0.22 | 77 | 1015.1 |
| 20260506151502 | 59 | 297 | 4.0 | 8.0 | 0.00 | 0.31 | 0.22 | 77 | 1019.6 |
| 20260506151103 | 58 | 285 | 3.0 | 8.0 | 0.00 | 0.31 | 0.22 | 77 | 1015.1 |
| 20260506151004 | 58 | 261 | 4.0 | 8.0 | 0.00 | 0.31 | 0.22 | 76 | 1019.7 |
| 20260506150601 | 58 | 304 | 3.0 | 7.0 | 0.00 | 0.31 | 0.22 | 77 | 1015.1 |
| 20260506150500 | 58 | 307 | 4.0 | 7.0 | 0.00 | 0.31 | 0.22 | 77 | 1019.7 |
| 20260506150101 | 59 | 285 | 4.0 | 7.0 | 0.00 | 0.31 | 0.22 | 77 | 1015.1 |
| 20260506150005 | 59 | 297 | 4.0 | 7.0 | 0.00 | 0.31 | 0.22 | 77 | 1019.7 |
| 20260506145601 | 59 | 278 | 4.0 | 7.0 | 0.00 | 0.42 | 0.22 | 77 | 1015.1 |
| 20260506145103 | 59 | 284 | 2.0 | 7.0 | 0.00 | 0.42 | 0.22 | 77 | 1015.2 |
| 20260506145001 | 59 | 290 | 3.0 | 7.0 | 0.00 | 0.42 | 0.22 | 77 | 1019.7 |
| 20260506144608 | 59 | 284 | 2.0 | 7.0 | 0.00 | 0.42 | 0.22 | 78 | 1015.2 |
| 20260506144501 | 59 | 304 | 4.0 | 8.0 | 0.00 | 0.42 | 0.22 | 78 | 1019.7 |
| 20260506144100 | 59 | 296 | 2.0 | 8.0 | 0.00 | 0.42 | 0.22 | 78 | 1015.2 |
| 20260506144001 | 59 | 280 | 4.0 | 8.0 | 0.00 | 0.42 | 0.22 | 78 | 1019.8 |
| 20260506143600 | 59 | 239 | 3.0 | 9.0 | 0.00 | 0.42 | 0.22 | 77 | 1015.2 |
| 20260506143109 | 59 | 267 | 4.0 | 9.0 | 0.00 | 0.42 | 0.22 | 77 | 1015.3 |
| 20260506142600 | 59 | 276 | 3.0 | 8.0 | 0.00 | 0.42 | 0.22 | 77 | 1015.4 |
| 20260506142503 | 59 | 266 | 3.0 | 8.0 | 0.00 | 0.42 | 0.22 | 78 | 1019.9 |
| 20260506142102 | 58 | 281 | 3.0 | 8.0 | 0.00 | 0.42 | 0.22 | 77 | 1015.4 |
| 20260506142001 | 58 | 293 | 3.0 | 8.0 | 0.00 | 0.42 | 0.22 | 77 | 1019.9 |
| 20260506141559 | 58 | 266 | 2.0 | 7.0 | 0.00 | 0.42 | 0.22 | 77 | 1015.4 |
| 20260506141500 | 58 | 307 | 3.0 | 7.0 | 0.00 | 0.42 | 0.22 | 77 | 1019.9 |
| 20260506141101 | 58 | 285 | 2.0 | 7.0 | 0.00 | 0.42 | 0.22 | 76 | 1015.4 |
| 20260506141002 | 58 | 254 | 3.0 | 7.0 | 0.00 | 0.42 | 0.22 | 76 | 1020.0 |
| 20260506140601 | 58 | 303 | 2.0 | 6.0 | 0.00 | 0.42 | 0.22 | 78 | 1015.4 |
| 20260506140106 | 57 | 202 | 2.0 | 6.0 | 0.00 | 0.42 | 0.22 | 79 | 1015.5 |
| 20260506140005 | 57 | 293 | 3.0 | 6.0 | 0.00 | 0.42 | 0.22 | 78 | 1020.1 |
| 20260506140002 | 57 | 293 | 3.0 | 6.0 | 0.00 | 0.42 | 0.22 | 78 | 1015.5 |
| 20260506135559 | 58 | 261 | 2.0 | 7.0 | 0.00 | 0.49 | 0.22 | 79 | 1015.5 |
| 20260506135501 | 58 | 259 | 3.0 | 7.0 | 0.00 | 0.49 | 0.22 | 80 | 1020.0 |
| 20260506135101 | 57 | 232 | 2.0 | 8.0 | 0.00 | 0.49 | 0.22 | 79 | 1015.5 |
| 20260506135002 | 57 | 276 | 3.0 | 8.0 | 0.00 | 0.49 | 0.22 | 78 | 1020.1 |
| 20260506134600 | 57 | 216 | 3.0 | 9.0 | 0.00 | 0.49 | 0.22 | 77 | 1015.5 |
| 20260506134501 | 57 | 236 | 4.0 | 9.0 | 0.00 | 0.49 | 0.22 | 77 | 1020.0 |
| 20260506134100 | 57 | 226 | 4.0 | 9.0 | 0.00 | 0.49 | 0.22 | 79 | 1015.4 |
| 20260506134001 | 57 | 159 | 4.0 | 9.0 | 0.00 | 0.49 | 0.22 | 78 | 1020.0 |
| 20260506133600 | 57 | 238 | 4.0 | 7.0 | 0.00 | 0.49 | 0.22 | 80 | 1015.4 |
| 20260506133500 | 57 | 297 | 3.0 | 7.0 | 0.00 | 0.49 | 0.22 | 80 | 1020.0 |
| 20260506133103 | 57 | 303 | 2.0 | 7.0 | 0.00 | 0.49 | 0.22 | 81 | 1015.4 |
| 20260506133002 | 57 | 280 | 3.0 | 7.0 | 0.00 | 0.49 | 0.22 | 81 | 1020.0 |
| 20260506132600 | 57 | 257 | 4.0 | 7.0 | 0.00 | 0.49 | 0.22 | 81 | 1015.4 |
| 20260506132502 | 57 | 269 | 3.0 | 7.0 | 0.00 | 0.49 | 0.22 | 81 | 1020.0 |
| 20260506132100 | 57 | 227 | 3.0 | 9.0 | 0.00 | 0.49 | 0.22 | 81 | 1015.4 |
| 20260506132001 | 57 | 257 | 3.0 | 9.0 | 0.00 | 0.49 | 0.22 | 81 | 1019.9 |
| 20260506131603 | 57 | 260 | 2.0 | 9.0 | 0.00 | 0.49 | 0.22 | 82 | 1015.4 |
| 20260506131501 | 57 | 257 | 4.0 | 9.0 | 0.00 | 0.49 | 0.22 | 82 | 1019.9 |
| 20260506131104 | 57 | 217 | 3.0 | 9.0 | 0.00 | 0.49 | 0.22 | 83 | 1015.4 |
| 20260506131000 | 57 | 269 | 4.0 | 9.0 | 0.00 | 0.49 | 0.22 | 84 | 1019.9 |
| 20260506130601 | 57 | 290 | 3.0 | 9.0 | 0.00 | 0.49 | 0.22 | 83 | 1015.3 |
| 20260506130502 | 57 | 241 | 4.0 | 9.0 | 0.00 | 0.49 | 0.22 | 83 | 1019.9 |
| 20260506130007 | 57 | 267 | 4.0 | 11.0 | 0.00 | 0.49 | 0.22 | 83 | 1015.3 |
| 20260506130005 | 57 | 267 | 5.0 | 11.0 | 0.00 | 0.49 | 0.22 | 83 | 1019.9 |
| 20260506125559 | 57 | 266 | 5.0 | 11.0 | 0.00 | 0.56 | 0.22 | 83 | 1015.2 |
| 20260506125500 | 57 | 237 | 6.0 | 11.0 | 0.00 | 0.57 | 0.22 | 83 | 1019.8 |
| 20260506125100 | 57 | 245 | 4.0 | 11.0 | 0.00 | 0.56 | 0.22 | 82 | 1015.3 |
| 20260506124559 | 57 | 295 | 5.0 | 11.0 | 0.00 | 0.56 | 0.22 | 83 | 1015.2 |
| 20260506124502 | 57 | 195 | 5.0 | 11.0 | 0.00 | 0.57 | 0.22 | 84 | 1019.7 |
| 20260506124100 | 57 | 261 | 5.0 | 16.0 | 0.00 | 0.56 | 0.22 | 84 | 1015.1 |
| 20260506124001 | 57 | 252 | 7.0 | 16.0 | 0.00 | 0.57 | 0.22 | 84 | 1019.7 |
| 20260506123601 | 56 | 240 | 7.0 | 16.0 | 0.00 | 0.56 | 0.22 | 84 | 1015.3 |
| 20260506123501 | 56 | 269 | 8.0 | 16.0 | 0.00 | 0.57 | 0.22 | 84 | 1019.7 |
| 20260506123100 | 56 | 259 | 6.0 | 13.0 | 0.00 | 0.56 | 0.22 | 84 | 1015.2 |
| 20260506122601 | 56 | 241 | 5.0 | 13.0 | 0.00 | 0.56 | 0.22 | 84 | 1015.1 |
| 20260506122501 | 56 | 227 | 6.0 | 13.0 | 0.00 | 0.57 | 0.22 | 83 | 1019.8 |
| 20260506122100 | 57 | 282 | 6.0 | 11.0 | 0.00 | 0.56 | 0.22 | 83 | 1015.2 |
| 20260506122001 | 57 | 183 | 5.0 | 10.0 | 0.00 | 0.57 | 0.22 | 83 | 1019.8 |
| 20260506121600 | 57 | 247 | 5.0 | 11.0 | 0.00 | 0.56 | 0.22 | 82 | 1015.2 |
| 20260506121500 | 57 | 301 | 6.0 | 12.0 | 0.01 | 0.57 | 0.22 | 81 | 1019.7 |
| 20260506121100 | 57 | 271 | 5.0 | 12.0 | 0.02 | 0.56 | 0.22 | 81 | 1015.2 |
| 20260506121005 | 57 | 248 | 6.0 | 12.0 | 0.02 | 0.57 | 0.22 | 81 | 1019.7 |
| 20260506120600 | 57 | 253 | 5.0 | 12.0 | 0.02 | 0.56 | 0.22 | 81 | 1015.1 |
| 20260506120501 | 57 | 235 | 6.0 | 12.0 | 0.02 | 0.57 | 0.22 | 81 | 1019.7 |
| 20260506120100 | 57 | 223 | 5.0 | 14.0 | 0.02 | 0.56 | 0.22 | 82 | 1015.1 |
| 20260506120005 | 57 | 270 | 6.0 | 14.0 | 0.02 | 0.57 | 0.22 | 81 | 1019.7 |
| 20260506115502 | 58 | 243 | 5.0 | 13.0 | 0.02 | 0.56 | 0.22 | 81 | 1015.1 |
| 20260506115004 | 57 | 264 | 5.0 | 10.0 | 0.02 | 0.57 | 0.22 | 80 | 1019.6 |
| 20260506115000 | 57 | 264 | 4.0 | 10.0 | 0.02 | 0.56 | 0.22 | 80 | 1015.0 |
| 20260506114503 | 57 | 302 | 5.0 | 12.0 | 0.02 | 0.57 | 0.22 | 81 | 1019.6 |
| 20260506114003 | 57 | 234 | 5.0 | 12.0 | 0.02 | 0.56 | 0.22 | 81 | 1015.0 |
| 20260506113502 | 57 | 283 | 4.0 | 13.0 | 0.02 | 0.56 | 0.22 | 83 | 1015.0 |
| 20260506113002 | 57 | 293 | 7.0 | 13.0 | 0.02 | 0.57 | 0.22 | 83 | 1019.6 |
| 20260506112506 | 56 | 264 | 6.0 | 12.0 | 0.02 | 0.57 | 0.22 | 85 | 1019.6 |
| 20260506112504 | 56 | 269 | 5.0 | 12.0 | 0.02 | 0.56 | 0.22 | 85 | 1015.0 |
| 20260506112001 | 56 | 276 | 6.0 | 18.0 | 0.02 | 0.56 | 0.22 | 85 | 1015.0 |
| 20260506111501 | 57 | 268 | 9.0 | 18.0 | 0.00 | 0.56 | 0.20 | 81 | 1015.1 |
| 20260506111003 | 58 | 231 | 4.0 | 10.0 | 0.00 | 0.56 | 0.20 | 79 | 1015.0 |
| 20260506110501 | 58 | 241 | 3.0 | 8.0 | 0.00 | 0.56 | 0.20 | 79 | 1014.9 |
| 20260506110008 | 58 | 249 | 4.0 | 8.0 | 0.00 | 0.56 | 0.20 | 79 | 1014.9 |
| 20260506105502 | 58 | 223 | 5.0 | 12.0 | 0.00 | 0.56 | 0.20 | 78 | 1019.5 |
| 20260506105000 | 58 | 267 | 5.0 | 12.0 | 0.00 | 0.56 | 0.20 | 79 | 1014.9 |
| 20260506104504 | 58 | 259 | 5.0 | 10.0 | 0.00 | 0.56 | 0.20 | 78 | 1019.4 |
| 20260506104501 | 58 | 226 | 5.0 | 10.0 | 0.00 | 0.56 | 0.20 | 78 | 1014.8 |
| 20260506104002 | 58 | 281 | 5.0 | 13.0 | 0.00 | 0.56 | 0.20 | 78 | 1019.4 |
| 20260506103502 | 58 | 211 | 4.0 | 13.0 | 0.00 | 0.56 | 0.20 | 78 | 1019.4 |
| 20260506103005 | 58 | 259 | 5.0 | 14.0 | 0.00 | 0.56 | 0.20 | 81 | 1019.3 |
| 20260506103003 | 58 | 259 | 3.0 | 14.0 | 0.00 | 0.56 | 0.20 | 81 | 1014.8 |
| 20260506102502 | 57 | 299 | 4.0 | 14.0 | 0.00 | 0.56 | 0.20 | 81 | 1014.8 |
| 20260506102004 | 56 | 293 | 5.0 | 11.0 | 0.00 | 0.56 | 0.20 | 85 | 1019.4 |
| 20260506102002 | 56 | 293 | 4.0 | 11.0 | 0.00 | 0.56 | 0.20 | 85 | 1014.9 |
| 20260506101502 | 56 | 233 | 4.0 | 10.0 | 0.00 | 0.56 | 0.20 | 90 | 1014.8 |
| 20260506101003 | 55 | 288 | 3.0 | 9.0 | 0.00 | 0.56 | 0.20 | 92 | 1014.9 |
| 20260506100502 | 55 | 253 | 3.0 | 8.0 | 0.01 | 0.56 | 0.20 | 93 | 1019.4 |
| 20260506100008 | 55 | 288 | 2.0 | 8.0 | 0.02 | 0.56 | 0.20 | 93 | 1014.9 |
| 20260506100006 | 55 | 276 | 3.0 | 8.0 | 0.02 | 0.56 | 0.20 | 93 | 1019.4 |
| 20260506095502 | 54 | 149 | 3.0 | 8.0 | 0.02 | 0.56 | 0.20 | 94 | 1019.3 |
| 20260506095002 | 54 | 239 | 2.0 | 5.0 | 0.02 | 0.56 | 0.20 | 94 | 1019.4 |
| 20260506094505 | 54 | 221 | 2.0 | 8.0 | 0.03 | 0.56 | 0.20 | 94 | 1014.8 |
| 20260506094503 | 54 | 221 | 3.0 | 8.0 | 0.03 | 0.56 | 0.20 | 94 | 1019.3 |
| 20260506094002 | 54 | 221 | 4.0 | 8.0 | 0.04 | 0.56 | 0.20 | 93 | 1019.4 |
| 20260506093501 | 53 | 299 | 3.0 | 11.0 | 0.05 | 0.56 | 0.20 | 93 | 1014.8 |
| 20260506093002 | 53 | 228 | 5.0 | 11.0 | 0.05 | 0.56 | 0.20 | 93 | 1019.3 |
| 20260506092503 | 53 | 303 | 5.0 | 12.0 | 0.05 | 0.56 | 0.20 | 92 | 1019.4 |
| 20260506092004 | 53 | 307 | 5.0 | 13.0 | 0.05 | 0.56 | 0.20 | 92 | 1019.4 |
| 20260506092001 | 53 | 307 | 3.0 | 13.0 | 0.05 | 0.56 | 0.20 | 92 | 1014.8 |
| 20260506091502 | 53 | 248 | 7.0 | 13.0 | 0.06 | 0.56 | 0.20 | 90 | 1014.8 |
| 20260506091001 | 55 | 274 | 2.0 | 11.0 | 0.06 | 0.56 | 0.20 | 89 | 1014.8 |
| 20260506090503 | 56 | 216 | 3.0 | 11.0 | 0.06 | 0.55 | 0.20 | 82 | 1014.8 |
| 20260506090006 | 55 | 275 | 2.0 | 5.0 | 0.06 | 0.54 | 0.19 | 82 | 1014.6 |
| 20260506085501 | 55 | 296 | 2.0 | 6.0 | 0.07 | 0.55 | 0.18 | 82 | 1019.1 |
| 20260506085002 | 55 | 263 | 3.0 | 7.0 | 0.07 | 0.54 | 0.17 | 81 | 1019.1 |
| 20260506084502 | 55 | 304 | 3.0 | 7.0 | 0.06 | 0.54 | 0.17 | 82 | 1014.6 |
| 20260506084004 | 55 | 288 | 2.0 | 5.0 | 0.06 | 0.54 | 0.17 | 81 | 1019.1 |
| 20260506084002 | 55 | 288 | 2.0 | 5.0 | 0.06 | 0.54 | 0.17 | 81 | 1014.5 |
| 20260506083502 | 55 | 266 | 2.0 | 8.0 | 0.06 | 0.53 | 0.16 | 82 | 1014.5 |
| 20260506083003 | 55 | 264 | 4.0 | 10.0 | 0.06 | 0.53 | 0.16 | 81 | 1019.0 |
| 20260506083001 | 55 | 264 | 3.0 | 10.0 | 0.06 | 0.53 | 0.16 | 81 | 1014.5 |
| 20260506082502 | 55 | 249 | 5.0 | 11.0 | 0.06 | 0.53 | 0.16 | 81 | 1019.0 |
| 20260506082003 | 55 | 287 | 5.0 | 11.0 | 0.05 | 0.52 | 0.15 | 81 | 1019.0 |
| 20260506082001 | 55 | 287 | 6.0 | 11.0 | 0.05 | 0.52 | 0.15 | 81 | 1014.5 |
| 20260506081502 | 55 | 288 | 5.0 | 10.0 | 0.05 | 0.52 | 0.15 | 82 | 1019.0 |
| 20260506081005 | 55 | 297 | 3.0 | 10.0 | 0.05 | 0.52 | 0.15 | 81 | 1018.9 |
| 20260506081001 | 55 | 297 | 5.0 | 10.0 | 0.05 | 0.52 | 0.15 | 81 | 1014.4 |
| 20260506080503 | 55 | 269 | 2.0 | 6.0 | 0.03 | 0.50 | 0.13 | 81 | 1018.9 |
| 20260506073503 | 55 | 264 | 1.0 | 5.0 | 0.00 | 0.57 | 0.10 | 82 | 1018.7 |
| 20260506073002 | 55 | 200 | 0.0 | 3.0 | 0.00 | 0.57 | 0.10 | 82 | 1018.7 |
| 20260506072504 | 55 | 346 | 0.0 | 2.0 | 0.00 | 0.56 | 0.10 | 83 | 1014.2 |
| 20260506072502 | 55 | 346 | 0.0 | 2.0 | 0.00 | 0.57 | 0.10 | 83 | 1018.7 |
| 20260506072002 | 55 | 128 | 1.0 | 3.0 | 0.00 | 0.57 | 0.10 | 83 | 1018.7 |
| 20260506071502 | 55 | 108 | 0.0 | 3.0 | 0.00 | 0.56 | 0.10 | 83 | 1014.2 |
| 20260506071003 | 55 | 145 | 1.0 | 3.0 | 0.00 | 0.57 | 0.10 | 83 | 1018.7 |
| 20260506071000 | 55 | 145 | 0.0 | 3.0 | 0.00 | 0.56 | 0.10 | 83 | 1014.1 |
| 20260506070502 | 55 | 117 | 1.0 | 3.0 | 0.00 | 0.57 | 0.10 | 83 | 1018.5 |
| 20260506062501 | 54 | 122 | 1.0 | 3.0 | 0.02 | 0.72 | 0.10 | 87 | 1018.4 |
| 20260506062002 | 54 | 132 | 0.0 | 4.0 | 0.02 | 0.72 | 0.10 | 88 | 1013.9 |
| 20260506061503 | 53 | 71 | 2.0 | 5.0 | 0.02 | 0.72 | 0.10 | 87 | 1018.3 |
| 20260506061501 | 53 | 82 | 1.0 | 5.0 | 0.02 | 0.72 | 0.10 | 87 | 1013.8 |
| 20260506061002 | 53 | 68 | 2.0 | 5.0 | 0.04 | 0.72 | 0.10 | 88 | 1018.4 |